Regional Weather Roundup
Issued by NWS

Home | Current Version | Previous Version | Graphics & Text | Print | Product List | Glossary On
Versions: 1 2 3 4 5 6 7 8 9 10 11 12 13 14 15 16 17 18 19 20 21 22 23 24 25 26 27 28 29 30 31 32 33 34 35 36 37 38 39 40 41 42 43 44 45 46 47 48 49 50
000
ASUS43 KMPX 231401
RWRMN
WEATHER ROUNDUP FOR MINNESOTA
NATIONAL WEATHER SERVICE TWIN CITIES/CHANHASSEN MN
900 AM CDT WED JUL 23 2014


NOTE: "FAIR" INDICATES FEW OR NO CLOUDS BELOW 12,000 FEET WITH NO
SIGNIFICANT WEATHER AND/OR OBSTRUCTIONS TO VISIBILITY. N/A MEANS
CURRENT SKY AND/OR WEATHER CONDITIONS ARE NOT AVAILABLE.

MNZ060>063-068>070-231500-
   Twin Cities Metro

CITY           SKY/WX    TMP DP  RH WIND       PRES   REMARKS
TWIN CITIES    MOSUNNY   72  55  55 NW3       30.26R
ST PAUL          N/A     71  57  61 CALM      30.25F
CRYSTAL        SUNNY     71  55  56 N6        30.24F
BLAINE         MOSUNNY   70  59  68 N5        30.25F
LAKEVILLE      SUNNY     70  57  64 N3        30.26S
EDEN PRAIRIE   SUNNY     72  56  57 N3        30.25S
SOUTH ST PAUL  SUNNY     71  55  58 N6        30.25F
LAKE ELMO      FAIR      68  59  73 CALM      30.26S
$$
MNZ001>005-007-008-013>017-022>024-027-028-231500-
   Northwest Minnesota

CITY           SKY/WX    TMP DP  RH WIND       PRES   REMARKS
BEMIDJI        CLOUDY    64  60  86 CALM      30.29S
HALLOCK        PTSUNNY   61  57  88 N6        30.32R
ROSEAU         MOSUNNY   63  57  82 N3        30.31S
THIEF RVR FALL PTSUNNY   61  57  88 N3        30.31R
CROOKSTON      PTSUNNY   63  59  88 NW3       30.32R
FOSSTON        PTSUNNY   61  57  88 CALM      30.32R
DETROIT LAKES  MOSUNNY   64  55  72 NE6       30.32S
MOORHEAD       CLOUDY    66  64  94 CALM      30.31R
PARK RAPIDS    MOSUNNY   65  55  70 N6        30.30S
$$
MNZ006-009>011-018-025>026-231500-
   North Central Minnesota

CITY           SKY/WX    TMP DP  RH WIND       PRES   REMARKS
BAUDETTE       MOSUNNY   65  56  72 E5        30.31R
FLAG ISLAND    MOSUNNY   64  54  68 N8        30.30R
INTL FALLS     PTSUNNY   63  52  67 NE5       30.30R
WASKISH        PTSUNNY   64  57  77 CALM      30.30R
LONGVILLE      PTSUNNY   64  61  88 CALM      30.28F
GRAND RAPIDS   PTSUNNY   63  55  77 N5        30.29S
CRANE LAKE     SUNNY     61  54  77 CALM      30.30R
ORR            SUNNY     63  54  72 CALM      30.27R
COOK           SUNNY     63  54  72 CALM      30.29R
$$
MNZ012-019>021-037-231500-
   Northeast Minnesota

CITY           SKY/WX    TMP DP  RH WIND       PRES   REMARKS
DULUTH         MOSUNNY   67  56  67 NE5       30.27R
ELY            SUNNY     63  55  77 CALM      30.27S
HIBBING        MOSUNNY   68  54  60 N5        30.29R
DULUTH HARBOR  SUNNY     64  55  72 CALM      30.26S
TWO HARBORS    SUNNY     68  54  60 N3        30.24S
SILVER BAY     SUNNY     66  59  77 CALM      30.24R
GRAND MARAIS     N/A     57  52  83 CALM      30.23S
G MARAIS ARPRT SUNNY     63  52  67 NW3       30.26S
$$
MNZ029>031-032-039>041-046>048-054>057-064-231500-
   West Central Minnesota

CITY           SKY/WX    TMP DP  RH WIND       PRES   REMARKS
FERGUS FALLS   SUNNY     68  55  64 NE5       30.29S
WHEATON        MOSUNNY   66  59  77 E3        30.31S
MORRIS         SUNNY     70  61  73 E5        30.28S
ALEXANDRIA     SUNNY     68  55  63 E8        30.30F
ELBOW LAKE     FAIR      68  60  74 E5        30.29S
WADENA         SUNNY     64  57  77 NE3       30.29F
GLENWOOD       SUNNY     66  59  77 NE6       30.30S
APPLETON       MOSUNNY   70  57  64 NE6       30.28S
BENSON         SUNNY     70  61  73 E6        30.28F
ORTONVILLE     MOSUNNY   70  57  64 CALM      30.29S
MADISON        SUNNY     70  59  68 NE3       30.29S
WILLMAR        FAIR      70  55  60 NE7       30.30S
$$
MNZ033>034-036-042>043-049>051-058-059-231500-
   Central Minnesota

CITY           SKY/WX    TMP DP  RH WIND       PRES   REMARKS
ST CLOUD       SUNNY     71  58  63 N6        30.27F
SAUK CENTRE    FAIR      67  55  65 N7        30.30S
PAYNESVILLE    SUNNY     65  56  70 N7        30.29F
AITKIN         MOSUNNY   66  59  77 CALM      30.27F
PINE RIVER     MOSUNNY   63  57  82 N3        30.32R
BRAINERD       MOSUNNY   65  57  75 N7        30.29S
STAPLES        SUNNY     64  55  72 CALM      30.29F
LONG PRAIRIE   FAIR      64  55  72 N5        30.30F
LITTLE FALLS   SUNNY     64  55  72 N3        30.29R
LITCHFIELD     SUNNY     68  61  77 N5        30.29S
BUFFALO        SUNNY     69  56  63 N3        30.28S
MAPLE LAKE     SUNNY     69  59  71 N6        30.28S
$$
MNZ037-044-045-052-053-231500-
   East Central Minnesota

CITY           SKY/WX    TMP DP  RH WIND       PRES   REMARKS
PRINCETON      SUNNY     72  61  68 NW6       30.27S
MORA           SUNNY     64  55  72 CALM      30.27F
CAMBRIDGE      SUNNY     70  57  64 N6        30.24F
RUSH CITY      SUNNY     65  57  73 CALM      30.26S
MOOSE LAKE     MOSUNNY   64  55  72 N3        30.25S
HINCKLEY       FAIR      64  59  82 N5        30.26F
CLOQUET        SUNNY     66  55  68 N5        30.27S
MCGREGOR       PTSUNNY   63  59  88 CALM      30.28F
$$
MNZ071>073-080-081-089-090-097-098-231500-
   Southwest Minnesota

CITY           SKY/WX    TMP DP  RH WIND       PRES   REMARKS
MONTEVIDEO     SUNNY     72  59  64 E5        30.29S
GRANITE FALLS  SUNNY     67  57  71 NE3       30.30S
CANBY          SUNNY     67  58  72 CALM      30.30F
MARSHALL       SUNNY     66  55  68 N3        30.29S
REDWOOD FALLS  SUNNY     69  57  65 NE5       30.28R
OLIVIA         SUNNY     70  59  68 NE5       30.27F
PIPESTONE      MOSUNNY   66  55  68 E5        30.30S
WINDOM         SUNNY     68  55  64 N8        30.29S
WORTHINGTON    SUNNY     66  57  72 NE8       30.30F
JACKSON        SUNNY     66  55  68 NE7       30.29S
TRACY          SUNNY     67  58  74 N3        30.30S
SLAYTON        SUNNY     66  56  70 CALM      30.31S
$$
MNZ065>067-074>077-082>085-091>093-231500-
   South Central Minnesota

CITY           SKY/WX    TMP DP  RH WIND       PRES   REMARKS
MANKATO        SUNNY     66  55  68 NE8       30.27S
NEW ULM        SUNNY     68  57  68 NE6       30.27S
ST JAMES       SUNNY     68  57  68 N3        30.28F
FAIRMONT       MOSUNNY   66  55  68 N7        30.27S
GLENCOE        SUNNY     70  56  60 CALM      30.27S
FARIBAULT      SUNNY     73  57  56 N3        30.26S
OWATONNA       SUNNY     68  61  77 N3        30.26S
WASECA         MOSUNNY   66  55  68 CALM      30.28R
ALBERT LEA     SUNNY     70  61  73 CALM      30.26R
$$
MNZ078>079-086>088-094>096-231500-
   Southeast Minnesota

CITY           SKY/WX    TMP DP  RH WIND       PRES   REMARKS
ROCHESTER      SUNNY     70  61  73 NW3       30.27R
RED WING       SUNNY     72  61  68 W3        30.24R
STANTON        SUNNY     70  59  68 N5        30.25S
DODGE CENTER   MOSUNNY   68  63  83 N5        30.26S
WINONA         SUNNY     70  61  73 CALM      30.24R
AUSTIN         SUNNY     72  61  68 CALM      30.25S
PRESTON        SUNNY     67  63  89 N3        30.26R
$$
ABBREVIATIONS USED IN REMARKS
   TC - TEMPERATURES IN CELSIUS
  WCI - WIND CHILL INDEX
   HX - HEAT INDEX
  VSB - VISIBILITY
$$



USA.gov is the U.S. government's official web portal to all federal, state and local government web resources and services.